EQUISAT (43552 NORAD) Tracking and Keplerian Element Data

This shows tracking and keplerian element data for the satellite.

Feedback or suggestion? Click here.




ElementValue
Catalog43552
NameEQUISAT
Epoch Orbit1922
Epoch Day318.09380224
Epoch Year2018
RAAN349.9926
Inclination51.64
Eccentricity0.0007367
Argument of Perigee52.9413
Mean Anonmoly307.2252
Mean Motion15.56904441
Decay Rate9.129E-05
L11 43552U 98067PA 18318.09380224 .00009129 00000-0 13103-3 0 9990
L22 43552 51.6400 349.9926 0007367 52.9413 307.2252 15.56904441 19220

Live tracking and technical data element details for EQUISAT (NORAD 43552). EQUISAT can be tracked NOW for your location showing map with azimuth and elevation plus other details from your city location.

Track the satellite on the map from your city or location and see movement details for azimuth, elevation, latitude, longitude, range, height, and movement on the map or in text.







IsCatalogInMostPopularTable: catalog: 43552, numindb: 40
Update: records affected: 1



GetName: 43552 EQUISAT

Hit Count: updated at: Fri, 16 Nov 2018 02:53:46 GMT